Regional Weather Roundup
Issued by NWS Upton, NY

Current Version | Previous Version | Graphics & Text | Print | Product List | Glossary Off
Versions: 1 2 3 4 5 6 7 8 9 10 11 12 13 14 15 16 17 18 19 20 21 22 23 24 25 26 27 28 29 30 31 32 33 34 35 36 37 38 39 40 41 42 43 44 45 46 47 48 49 50

000
ASUS41 KOKX 022008
RWROKX

REGIONAL WEATHER ROUNDUP
NATIONAL WEATHER SERVICE NEW YORK NY
400 PM EDT TUE JUN 02 2015

NOTE: "FAIR" INDICATES FEW OR NO CLOUDS BELOW 12,000 FEET WITH NO
SIGNIFICANT WEATHER AND/OR OBSTRUCTIONS TO VISIBILITY.

NYZ071-072-176-178-NJZ106-104-022100-
NEW YORK CITY METRO AREA


CITY           SKY/WX    TMP DP  RH WIND       PRES   REMARKS
CENTRAL PARK   CLOUDY    54  52  93 E7        30.15F
LAGUARDIA APRT LGT RAIN  54  50  86 NE12      30.12F
KENNEDY INTL   RAIN      55  50  83 NE12      30.13F
NEWARK/LIBERTY   N/A    N/A N/A N/A MISG      30.13F
BRNX BOT. GARD   N/A     54  50  87 E3        30.15S
TETERBORO      LGT RAIN  55  51  86 NE6       30.11F
$$

NYZ177-179-078>081-022100-
LONG ISLAND NEW YORK

CITY           SKY/WX    TMP DP  RH WIND       PRES   REMARKS
FARMINGDALE    LGT RAIN  53  50  89 NE6       30.13F
ISLIP          LGT RAIN  53  49  86 N12       30.11S
SHIRLEY        LGT RAIN  53  50  89 VRB7      30.13S
WESTHAMPTON    LGT RAIN  53  51  93 N13       30.13F
MONTAUK POINT    N/A     53  49  86 N9        30.14F
$$

NYZ052-065-067-022100-
HUDSON VALLEY

CITY           SKY/WX    TMP DP  RH WIND       PRES   REMARKS
WHITE PLAINS   LGT RAIN  55  51  86 NE6       30.12S
NEWBURGH       DRIZZLE   54  52  94 E8        30.15F
MONTGOMERY     CLOUDY    55  50  83 NE6       30.13F
POUGHKEEPSIE   CLOUDY    56  50  80 NE3       30.13S
ALBANY         CLOUDY    60  48  64 N5        30.15F
$$

NJZ001-105-106-008-010-013-015-019>022-104-022100-
NEW JERSEY

CITY           SKY/WX    TMP DP  RH WIND       PRES   REMARKS
NEWARK/LIBERTY   N/A    N/A N/A N/A MISG      30.13F
TETERBORO      LGT RAIN  55  51  86 NE6       30.11F
CALDWELL       LGT RAIN  54  51  90 E6        30.13S
MORRISTOWN     CLOUDY    61  59  94 E8        30.13F FOG
SOMERVILLE     LGT RAIN  56  53  90 CALM      30.11S FOG
SUSSEX         LGT RAIN  54  51  90 NE5       30.14S
ANDOVER          N/A     53  51  93 VRB6      30.13F
TRENTON        LGT RAIN  56  53  90 NE8       30.11F
MILLVILLE      LGT RAIN  56  54  93 NE8       30.09S
ATLANTIC CITY  LGT RAIN  55  54  94 NE10      30.09F FOG
WRIGHTSTOWN    LGT RAIN  55  54  94 NE7       30.09S FOG
TOMS RIVER     CLOUDY   N/A N/A N/A NE9       30.11F
BELMAR         CLOUDY    54  46  76 NE10      30.12F
$$

PAZ047>061-062-071-022100-
EASTERN PENNSYLVANIA

CITY           SKY/WX    TMP DP  RH WIND       PRES   REMARKS
PHILADELPHIA   RAIN      57  53  86 NE6       30.12S FOG
ALLENTOWN      LGT RAIN  57  54  88 NE5       30.12F
SCRANTON       CLOUDY    58  53  84 CALM      30.12F
$$

CTZ002-004>006-009-010-012-RIZ004-006-007-MAZ004-011-015-022100-
SOUTHERN NEW ENGLAND
 IN CT

CITY           SKY/WX    TMP DP  RH WIND       PRES   REMARKS
BRADLEY INTL   CLOUDY    54  48  80 NE10      30.14F
HARTFORD       LGT RAIN  55  48  77 N8        30.14F
DANBURY        LGT RAIN  53  48  83 NE6       30.14F
WTRBRY/OXFORD  CLOUDY    52  45  76 NE12      30.15F FOG
BRIDGEPORT     LGT RAIN  55  51  86 NE12      30.13F
MERIDEN        LGT RAIN  53  49  86 N7        30.14F
NEW HAVEN      LGT RAIN  54  50  86 N12       30.13F
CHESTER        LGT RAIN  52  48  87 NE6       30.13F
GROTON         LGT RAIN  52  48  86 NE10      30.12F FOG
WILLIMANTIC    CLOUDY    52  46  80 NE9       30.15F

 IN RI

CITY           SKY/WX    TMP DP  RH WIND       PRES   REMARKS
PROVIDENCE     LGT RAIN  50  46  86 NE17G23   30.15F
BLOCK ISLAND   CLOUDY    50  46  87 N12       30.14S
WESTERLY       LGT RAIN  51  48  89 N7        30.14F FOG

 IN MA

CITY           SKY/WX    TMP DP  RH WIND       PRES   REMARKS
BOSTON         CLOUDY    49  45  86 NE12      30.17F
WORCESTER      CLOUDY    48  44  86 N8        30.15F
WESTFIELD      CLOUDY    54  46  74 NE5       30.15F
PROVINCETOWN   CLOUDY    50  45  81 N15       30.14R
NANTUCKET      LGT RAIN  53  48  83 N18       30.10R
$$

ANZ330-335-338-340-345-350-353-355-022100-
COASTAL MARINE OBSERVATIONS


STATION/POSITION TIME  SKY/WX   TEMP    WIND        PRES    VSBY  WAVE
                                AIR SEA DIR/SP/G                  HT/PER
                 (UTC)          (F)     (DEG/KT/KT) (MB)    (MI)  (FT/S)
NY HARB ENTRANCE 1950            54 56   30/ 12/ 14 1019.7          3/ 8
4S FIRE IS       1903               56                N/A           3/ 8
20S FIRE ISLAND  1950            53 56   40/ 17/ 19 1019.2          4/ 6
GREAT SOUTH BAY  1915            54 65   20/ 10/ 14   N/A
23SW MTP         1950            52 56   30/ 17/ 19 1019.5          5/ 5
HUDSON CANYON    NOT AVBL
KINGS POINT      1900            53 56   30/  6/ 11 1020.0
CENTRAL LI SOUND 1900            52 56   20/ 12/ 14   N/A
EASTERN LI SOUND 1900            52     360/ 12/ 16   N/A
ROBBINS REEF     1900            54      10/ 11/ 12 1019.1
$$


>>>>>>>>>>>>>>>>>>>>>>>>>>>> KEY <<<<<<<<<<<<<<<<<<<<<<<<<<<
>                                                          <
>     SKY/WX - SKY CONDITION/PRESENT WEATHER               <
>     TMP    - TEMPERATURE IN FAHRENHEIT                   <
>     DP     - DEWPOINT IN FAHRENHEIT                      <
>     RH     - RELATIVE HUMIDITY IN PERCENT                <
>     WIND   - DIRECTION AND SPEED IN MPH                  <
>     PRES   - MEAN SEA LEVEL PRESSURE IN INCHES OF HG     <
>     WCI    - WIND CHILL INDEX                            <
>     VSB    - VISIBILITY IN MILES                         <
>     HX     - HEAT INDEX                                  <
>     TC     - TEMPERATURE IN CELSIUS                      <
>     VRB    - VARIABLE WIND DIRECTION                     <
>                                                          <
>>>>>>>>>>>>>>>>>>>>>>>>>>>> KEY <<<<<<<<<<<<<<<<<<<<<<<<<<<





USA.gov is the U.S. government's official web portal to all federal, state and local government web resources and services.